Location: El Atico
(3.0014°N, 75.4378°W)
Time: 12:54:24
(UTC+00:00)

Cosmos 2058 Rocket - Pass Details

Date: 09 December 2025
Orbit: 603 x 633 km, 82.5° (Epoch: 25 January)

Event Time Altitude Azimuth Distance (km) Brightness Sun altitude
Rises 23:25:00 0° 194° (SSW) 2,895 7.1 -8.2°
Reaches altitude 10° 23:27:16 10° 199° (SSW) 1,993 6.3 -8.7°
Maximum altitude 23:31:32 49° 274° (W) 810 4.1 -9.7°
Drops below altitude 10° 23:35:50 10° 349° (N) 2,001 5.6 -10.7°
Sets 23:38:07 0° 355° (N) 2,908 6.3 -11.2°
